EW5345 Weather Reports


Display with metric or nautical units.
time (UTC)temp
F
wind
direction
speed
MPH
gust
MPH
rain 1hr
in
rain 24hr
in
rain mn
in
humidity
%
barometer
mb
20260505163038 66 142 4.0 9.0 0.00 0.56 0.46 75 1011.2
20260505161539 67 150 3.0 9.0 0.00 0.56 0.46 68 1011.3
20260505153040 68 180 4.0 9.0 0.00 0.57 0.46 66 1011.5
20260505151532 68 159 6.0 12.0 0.00 0.57 0.46 63 1011.4
20260505124519 67 161 5.0 12.0 0.00 0.59 0.46 74 1012.2
20260505123023 67 105 5.0 10.0 0.00 0.59 0.46 75 1012.2
20260505121517 67 197 6.0 15.0 0.00 0.59 0.46 75 1012.1
20260505120015 67 201 7.0 14.0 0.00 0.59 0.46 74 1012.1
20260505114515 66 154 7.0 12.0 0.00 0.59 0.46 75 1012.2
20260505113015 66 157 5.0 14.0 0.00 0.59 0.46 74 1012.2
20260505111514 66 197 4.0 11.0 0.00 0.59 0.46 77 1012.2
20260505101506 66 139 6.0 11.0 0.00 0.59 0.46 78 1012.3
20260505100008 65 153 3.0 10.0 0.00 0.59 0.46 80 1012.3
20260505094504 64 153 3.0 11.0 0.00 0.60 0.46 83 1012.4
20260505093006 65 146 3.0 8.0 0.00 0.60 0.46 82 1012.4
20260505091502 65 121 5.0 10.0 0.00 0.60 0.46 81 1012.4
20260505090100 66 215 4.0 7.0 0.00 0.60 0.46 80 1012.1
20260505090002 66 146 4.0 7.0 0.00 0.60 0.46 80 1012.1
20260505084602 66 135 4.0 8.0 0.00 0.60 0.46 82 1012.0
20260505083105 65 109 4.0 9.0 0.00 0.60 0.46 82 1011.9
20260505081551 65 107 5.0 9.0 0.00 0.60 0.46 85 1011.9
20260505080049 63 86 1.0 4.0 0.00 0.60 0.46 88 1012.0
20260505074545 63 62 3.0 8.0 0.00 0.60 0.46 87 1012.0
20260505073048 63 23 3.0 8.0 0.00 0.60 0.46 89 1011.8
20260505071538 61 44 4.0 9.0 0.00 0.60 0.46 91 1011.8
20260505070035 60 50 6.0 10.0 0.00 0.60 0.46 91 1011.6
20260505064534 59 350 1.0 4.0 0.00 0.60 0.46 91 1011.7
20260505063029 59 55 1.0 2.0 0.00 0.60 0.46 92 1011.7
20260505061530 59 55 0.0 4.0 0.00 0.60 0.46 92 1011.8
20260505060129 59 55 1.0 5.0 0.00 0.60 0.46 92 1011.7
20260505054544 58 55 1.0 2.0 0.00 0.66 0.46 92 1011.6
20260505053126 58 55 0.0 5.0 0.00 0.66 0.46 92 1011.5
20260505051535 58 59 3.0 5.0 0.00 0.66 0.46 92 1011.3
20260505041518 58 43 2.0 10.0 0.00 0.68 0.46 92 1010.9
20260505040017 58 268 1.0 2.0 0.00 0.68 0.46 92 1011.2
20260505034525 58 325 2.0 5.0 0.00 0.68 0.46 91 1011.2
20260505033015 58 36 3.0 6.0 0.00 0.68 0.46 91 1011.0
20260505031514 58 213 2.0 10.0 0.00 0.68 0.46 92 1011.1
20260505030032 58 230 4.0 9.0 0.00 0.68 0.46 91 1011.2
20260505024516 58 96 1.0 11.0 0.00 0.68 0.46 92 1010.9
20260505023010 58 52 5.0 13.0 0.00 0.68 0.46 92 1010.9
20260505021509 57 21 5.0 15.0 0.00 0.68 0.46 92 1011.2
20260505020006 57 64 2.0 5.0 0.00 0.68 0.46 92 1011.4
20260505014510 57 78 4.0 9.0 0.00 0.68 0.46 92 1011.4
20260505013012 57 9 2.0 5.0 0.00 0.68 0.46 92 1011.5
20260505011502 56 59 6.0 12.0 0.00 0.68 0.46 92 1011.7
20260505010002 56 176 2.0 6.0 0.02 0.68 0.46 92 1012.1
20260505004504 56 9 3.0 12.0 0.04 0.68 0.46 92 1011.9
20260505003101 56 54 6.0 11.0 0.09 0.68 0.46 93 1012.0
20260505001558 56 45 1.0 4.0 0.21 0.68 0.46 93 1012.3
20260505000111 56 360 0.0 7.0 0.26 0.66 0.45 92 1012.5
20260504234556 56 49 6.0 16.0 0.30 0.64 0.43 92 1012.5
20260504233055 56 64 13.0 24.0 0.31 0.56 0.36 92 1012.3
20260504231620 56 61 9.0 25.0 0.23 0.46 0.25 92 1012.5
20260504230050 56 50 9.0 17.0 0.18 0.40 0.19 92 1012.7
20260504224546 57 73 10.0 23.0 0.17 0.34 0.13 91 1012.9
20260504223046 58 61 9.0 21.0 0.13 0.27 0.06 91 1012.8
20260504221601 58 68 15.0 27.0 0.10 0.24 0.02 90 1012.2
20260504220035 58 64 14.0 28.0 0.09 0.22 0.01 89 1012.6
20260504214536 58 84 16.0 24.0 0.04 0.17 0.17 88 1013.4
20260504213038 59 49 10.0 21.0 0.00 0.13 0.13 86 1013.7
20260504211533 58 35 12.0 18.0 0.00 0.13 0.13 88 1013.5
20260504210024 58 42 10.0 16.0 0.02 0.13 0.13 88 1013.8
20260504204522 58 79 6.0 13.0 0.03 0.13 0.13 89 1014.1
20260504203021 58 45 5.0 12.0 0.03 0.13 0.13 89 1014.2
20260504201519 58 48 6.0 14.0 0.03 0.13 0.13 88 1014.4
20260504200020 58 46 9.0 17.0 0.01 0.11 0.11 86 1014.6
20260504194521 58 46 8.0 14.0 0.00 0.10 0.10 84 1014.3
20260504193017 58 25 4.0 8.0 0.00 0.10 0.10 84 1014.4
20260504191512 59 73 7.0 13.0 0.00 0.10 0.10 82 1014.3
20260504190018 59 39 5.0 11.0 0.00 0.10 0.10 79 1014.4
20260504184526 60 52 8.0 16.0 0.00 0.10 0.10 79 1014.5
20260504183008 59 45 4.0 14.0 0.00 0.10 0.10 75 1014.4
20260504181506 60 65 7.0 14.0 0.00 0.10 0.10 74 1014.3
20260504180004 60 52 6.0 12.0 0.00 0.10 0.10 77 1014.2
20260504174504 59 28 5.0 8.0 0.00 0.10 0.10 81 1014.1
20260504173007 60 323 2.0 9.0 0.00 0.10 0.10 80 1014.1
20260504171604 60 46 5.0 14.0 0.00 0.10 0.10 78 1014.4